GEFSMA_500_meanwind_024.txt.gz
Wind_Speed
21 21 21 21 21 21 20 20 20 19 18 17 17 18 18 18 18 18 19 20 20 21 22 22 22 21 20 19 19 19 19 19 19 18 17 16 15 16 18 19 19 19 18
26 27 27 26 26 25 25 23 22 21 20 20 19 19 19 18 18 19 20 21 21 22 22 22 22 21 21 20 20 19 19 20 19 18 18 17 16 16 17 18 19 19 19
30 31 32 32 31 30 28 27 26 24 23 22 21 20 19 19 19 20 21 21 21 22 22 21 21 20 20 20 20 20 20 20 19 19 18 18 17 16 16 18 19 20 19
34 34 35 36 35 35 33 30 28 26 25 24 22 21 21 21 21 21 21 21 21 20 20 21 21 21 20 20 20 20 21 20 20 19 18 18 18 17 17 18 20 20 20
35 37 37 37 38 37 35 33 30 28 27 26 24 23 22 22 22 22 22 22 21 21 20 21 22 22 21 21 21 21 21 21 20 20 19 18 18 18 18 18 19 21 22
38 38 38 38 38 36 35 34 32 29 28 27 26 25 24 23 22 22 22 22 22 22 23 22 22 23 23 22 22 22 22 22 21 20 20 19 18 18 18 18 19 21 22
40 41 39 40 40 38 38 35 33 30 29 27 27 26 25 24 22 22 22 22 22 23 23 24 24 24 24 23 23 23 23 23 22 20 20 19 19 18 18 18 19 20 21
42 43 43 42 41 41 39 36 34 31 30 29 29 28 26 25 24 22 22 22 23 23 24 25 26 26 26 25 24 24 24 23 22 21 20 19 19 19 18 18 19 20 20
44 45 44 44 43 42 40 38 35 33 31 30 30 29 27 26 25 23 22 22 23 24 25 25 26 27 27 27 26 25 24 23 23 21 20 19 19 18 19 19 19 19 18
46 46 46 46 46 45 43 40 37 34 32 32 31 30 28 27 27 26 24 23 23 24 25 27 27 28 28 29 28 26 24 23 23 21 20 19 18 18 19 19 19 19 17
48 48 48 48 46 45 43 41 38 36 34 32 31 31 29 29 28 27 26 26 25 25 25 27 29 29 30 30 29 27 25 23 22 21 19 18 17 17 18 19 20 20 20
49 49 48 46 45 43 41 40 37 36 35 33 33 32 30 29 29 29 28 28 28 28 28 28 29 29 30 30 29 27 24 22 21 20 19 18 17 17 17 18 20 22 21
49 48 46 45 43 42 40 38 36 36 35 35 33 32 31 30 30 30 29 28 29 30 30 29 28 28 29 28 27 25 24 22 20 19 19 18 17 16 16 17 20 20 21
47 45 43 42 41 40 38 37 36 35 35 34 32 31 31 30 30 29 29 29 28 28 28 29 28 27 28 27 26 24 23 21 20 19 18 17 17 16 16 16 18 19 19
43 41 40 39 37 36 35 34 34 33 32 31 31 30 29 29 29 29 28 27 27 26 26 28 27 27 27 26 25 23 23 22 20 19 18 18 17 16 15 15 16 16 15
39 38 36 35 34 33 33 32 32 31 30 29 28 28 28 28 27 26 26 26 26 26 25 27 27 27 26 25 24 24 23 23 21 19 18 17 16 15 14 13 14 14 14
37 36 35 34 31 30 29 29 29 29 28 28 28 28 27 26 26 25 25 25 25 25 24 25 27 26 26 25 24 23 22 22 21 19 17 16 15 14 14 14 14 14 14
34 33 31 29 28 27 28 28 28 28 27 27 27 27 26 26 26 26 26 26 25 25 25 25 26 26 26 25 25 24 23 22 21 19 17 16 15 14 14 15 15 15 15
33 32 31 29 29 28 28 28 28 28 28 27 27 27 27 27 27 28 27 27 26 26 26 25 25 26 26 26 26 25 24 23 21 19 17 16 15 16 17 17 18 17 17
34 34 33 33 32 31 31 30 30 30 30 30 29 29 29 29 30 30 29 29 29 28 27 26 26 27 27 27 27 27 25 23 21 19 18 17 17 18 20 20 20 20 19
37 37 37 37 37 36 36 36 35 35 34 34 34 33 32 32 32 32 32 31 31 30 29 28 27 27 27 27 27 27 26 24 21 20 20 19 18 19 21 22 24 23 22
40 40 40 40 41 41 41 42 42 41 41 40 39 38 37 37 36 35 35 34 33 33 32 30 28 28 28 28 28 28 27 25 22 21 21 20 20 20 22 24 26 26 24
41 41 42 43 44 44 45 45 46 46 45 44 44 43 42 41 40 39 37 36 36 35 34 32 30 29 28 28 27 27 27 26 24 22 21 21 21 21 22 23 24 25 25
41 41 42 43 44 45 45 46 46 46 45 45 45 44 43 42 41 40 39 38 37 37 36 35 33 31 30 29 29 28 28 27 26 25 24 22 21 21 22 22 23 24 24
38 39 39 40 41 42 43 43 44 44 43 43 42 41 40 40 39 39 39 38 38 38 37 37 36 34 33 31 31 30 29 28 27 27 26 25 25 23 22 21 21 23 25
35 36 36 37 38 38 38 38 38 39 38 38 38 37 37 37 38 38 38 39 39 38 38 37 37 36 35 34 33 32 31 30 29 29 28 26 25 24 23 23 21 22 23

GEFSMA_500_meanwind_030.txt.gz
Wind_Speed
13 13 15 17 18 20 20 21 22 22 22 22 22 22 22 22 22 21 21 20 19 18 18 17 17 16 14 13 12 12 12 13 14 14 14 14 14 14 15 17 19 21 22
15 15 16 17 19 21 22 23 24 24 23 23 23 23 23 23 23 23 22 22 21 20 19 18 17 16 14 14 13 12 12 13 13 14 15 15 15 15 16 17 18 20 20
20 19 20 20 22 23 24 25 25 25 24 24 23 23 23 23 23 24 24 24 23 22 21 19 18 16 16 15 15 14 13 13 13 14 15 15 16 16 16 17 18 19 21
23 23 23 24 24 25 27 28 28 27 25 25 24 22 22 23 23 24 25 25 24 24 23 21 19 18 17 17 16 15 15 14 14 15 15 16 16 16 16 17 18 19 19
25 25 26 27 27 29 30 31 30 28 27 26 25 24 23 22 22 23 24 25 26 25 24 23 21 20 19 19 18 18 17 16 16 15 16 16 16 17 17 18 18 19 19
28 28 29 29 30 31 32 33 32 31 30 28 27 26 24 23 23 24 25 25 26 26 25 24 23 22 21 20 20 20 20 18 18 17 16 16 17 17 18 18 19 19 20
30 31 31 31 32 33 35 35 35 34 33 32 29 27 27 26 25 25 26 26 26 26 26 25 24 23 23 22 22 22 22 21 20 19 17 17 17 18 19 19 20 20 20
31 32 32 33 34 35 36 37 38 37 36 35 32 30 28 28 27 26 26 26 26 26 26 25 25 25 24 24 24 24 24 23 22 21 19 18 18 18 19 20 20 21 21
32 32 33 34 35 37 38 39 39 38 37 36 35 32 29 28 27 28 27 25 25 25 25 26 26 27 26 26 26 26 25 25 24 22 21 19 18 19 20 20 21 21 21
32 32 33 34 36 37 39 40 40 40 39 38 36 34 31 30 29 28 29 28 26 26 27 27 27 28 28 27 27 27 26 25 24 23 21 19 19 19 19 20 21 21 21
31 32 34 36 38 39 39 40 41 41 40 38 36 34 32 31 30 29 29 30 29 28 28 27 28 28 29 29 28 27 26 25 25 23 21 19 19 19 19 20 20 21 22
34 35 37 38 39 39 40 40 40 40 39 37 35 34 33 33 32 32 31 30 30 30 29 27 27 27 28 28 27 27 26 25 24 22 21 20 19 19 20 20 20 21 22
36 37 38 39 39 40 39 38 38 37 37 36 34 33 32 32 31 31 31 30 30 31 30 29 28 27 27 28 26 26 25 24 22 22 21 20 19 19 20 20 21 21 22
38 39 40 40 40 39 38 36 35 35 34 33 32 32 31 31 30 31 31 30 29 30 29 29 27 26 26 26 25 24 24 23 22 21 20 19 19 19 20 20 20 20 21
40 41 41 40 38 36 34 33 33 33 33 32 31 31 31 30 30 30 31 30 29 28 28 28 25 24 25 25 24 23 23 22 21 20 20 19 19 19 18 19 19 20 21
41 40 38 36 34 33 32 31 31 30 30 30 29 29 28 28 28 27 27 27 27 25 25 26 24 22 23 23 22 22 22 21 20 20 19 19 18 18 18 18 18 19 20
37 35 34 33 32 31 30 30 29 28 27 27 27 27 27 26 26 27 27 26 25 24 23 24 24 22 21 21 21 21 21 20 19 19 18 17 17 17 17 17 17 18 18
33 33 32 32 31 31 31 30 29 28 27 27 26 26 26 26 25 25 26 26 25 24 23 23 23 22 21 20 20 20 20 19 19 18 18 17 17 17 17 16 17 17 17
33 33 33 33 32 32 31 31 31 31 30 29 29 28 27 27 26 26 25 25 25 25 23 23 24 23 22 21 21 21 20 20 19 19 18 18 17 17 16 17 17 16 16
34 34 34 35 34 34 34 34 34 33 34 33 32 32 31 30 30 29 28 28 27 26 26 25 25 24 23 23 22 22 22 22 21 20 19 18 18 17 17 17 17 17 17
34 34 35 36 36 36 36 36 36 36 36 36 36 36 35 35 34 33 32 31 31 30 29 28 27 26 25 24 24 24 24 24 22 20 20 19 19 18 18 17 17 18 19
33 34 35 35 36 36 37 37 37 38 38 38 38 38 38 38 38 37 36 36 35 34 33 31 30 29 27 27 26 26 26 25 23 22 21 20 20 20 20 19 18 19 20
33 33 34 34 35 35 36 36 37 38 38 38 38 39 39 39 39 39 39 38 38 36 36 34 33 31 30 29 29 28 27 26 26 25 24 23 23 22 22 21 20 20 22
31 31 31 32 32 33 34 35 35 36 37 37 38 38 39 38 38 38 38 38 38 38 37 36 35 34 33 32 31 30 30 30 29 29 28 26 24 24 24 23 22 22 23
26 27 27 28 30 31 32 33 34 34 35 36 36 36 36 36 36 36 37 38 38 38 38 37 36 36 35 34 34 33 33 33 33 32 31 30 28 27 26 26 26 25 24
22 23 25 27 29 30 31 32 32 32 32 32 32 33 33 34 33 33 33 34 35 36 37 37 37 37 37 36 35 35 35 35 35 35 34 32 31 31 30 29 28 27 27

GEFSMA_500_meanwind_036.txt.gz
Wind_Speed
17 16 16 15 15 15 15 14 14 15 16 17 17 17 18 18 19 19 19 19 19 19 19 18 17 17 17 16 16 16 15 15 15 15 15 15 15 16 16 17 17 18 19
20 19 19 19 18 18 17 16 16 17 18 18 19 19 20 20 20 20 19 20 20 21 21 20 19 19 18 18 17 16 16 16 16 16 15 16 16 16 17 17 18 18 19
22 22 22 21 21 21 20 19 19 20 20 21 21 22 22 23 23 22 21 21 21 21 22 22 22 21 20 19 19 18 18 17 17 16 16 16 17 17 17 18 19 19 20
25 24 24 24 23 23 23 22 21 22 23 23 23 24 24 25 25 24 23 22 22 22 23 23 23 23 23 22 21 20 20 19 18 17 17 17 17 18 18 19 19 20 20
28 26 26 26 25 25 25 25 24 25 25 25 25 26 27 27 27 26 26 25 24 24 24 25 24 24 24 24 23 22 21 21 20 19 18 18 18 18 19 19 20 21 21
31 29 28 28 27 27 27 27 27 27 28 28 28 28 29 29 29 29 28 28 27 27 26 27 26 25 25 25 25 24 23 22 21 21 20 20 19 19 20 20 21 21 22
34 32 32 31 30 29 29 29 30 30 31 31 31 31 31 32 31 31 30 30 29 29 28 28 28 27 27 27 26 25 25 24 23 22 22 22 21 21 21 22 22 22 23
37 35 34 33 32 31 31 31 31 31 32 34 34 34 32 33 34 33 33 32 31 31 30 30 29 28 28 27 27 27 26 26 25 24 24 23 23 23 22 23 23 24 24
41 39 36 35 34 32 31 31 31 31 33 35 37 37 35 33 34 35 36 34 33 32 32 31 30 29 29 29 29 29 28 27 27 26 26 25 25 24 24 24 24 24 24
41 40 37 35 34 31 30 30 31 33 34 36 37 38 38 36 34 32 34 36 35 34 32 31 31 31 31 31 31 30 30 29 29 28 28 27 26 25 25 25 25 25 25
38 37 34 31 30 29 29 30 31 33 34 36 37 37 37 37 36 33 31 34 35 35 34 33 33 32 32 32 33 33 31 30 30 29 28 28 26 25 25 25 25 25 25
33 32 30 28 28 29 29 30 32 34 35 36 36 36 36 35 34 33 30 30 33 35 35 34 34 34 34 34 34 34 33 32 30 29 29 28 27 26 25 25 25 25 24
30 30 29 28 28 29 30 32 34 35 35 35 35 34 34 33 32 32 30 29 30 32 34 34 33 34 34 34 35 34 33 33 31 30 29 28 27 26 25 25 25 25 24
30 31 31 31 31 32 33 34 35 35 34 33 32 32 31 31 31 30 30 29 28 29 30 32 33 32 32 32 33 34 32 32 31 29 28 27 27 26 25 25 25 25 24
30 32 33 33 34 34 35 34 34 33 32 31 30 29 29 29 29 28 29 29 28 27 28 31 33 32 31 30 31 32 32 32 30 28 28 27 26 26 25 25 25 25 24
33 34 34 34 34 34 33 32 31 30 30 29 28 28 28 28 28 27 27 27 27 26 26 28 30 30 29 29 30 31 31 30 29 28 27 26 26 26 25 25 24 24 24
33 34 33 33 33 33 32 31 30 29 29 28 29 29 29 29 29 28 27 27 27 26 26 27 29 29 28 28 29 30 29 27 26 27 26 25 25 24 24 24 24 24 24
33 33 32 32 32 32 32 31 31 30 30 30 30 30 30 30 31 30 30 29 29 27 26 26 28 29 29 29 28 28 27 26 25 25 25 23 23 23 22 22 22 22 22
32 32 32 32 32 33 33 33 32 32 33 33 33 33 32 32 32 32 32 32 31 30 29 28 28 28 28 28 28 27 26 26 26 26 25 24 23 23 22 21 21 21 22
31 31 32 33 33 33 33 33 34 34 34 34 34 34 34 34 34 34 34 34 34 33 32 31 30 30 30 29 28 28 27 27 26 26 25 25 23 22 21 21 22 21 22
31 31 32 33 33 33 33 33 34 34 35 35 35 35 35 35 35 36 36 36 36 36 35 34 33 32 32 31 30 29 29 29 28 27 26 25 24 23 22 21 21 22 23
30 31 32 32 32 32 32 33 34 34 34 35 35 35 36 36 36 36 37 37 37 37 37 36 36 35 35 34 33 33 32 31 30 28 27 26 26 25 24 23 22 22 22
29 30 30 30 31 31 32 32 32 33 33 34 34 35 36 36 36 37 37 37 37 38 38 38 38 37 37 37 36 35 35 33 31 30 29 29 28 26 25 24 23 22 22
27 28 29 29 29 29 29 29 29 30 31 32 32 33 34 35 36 36 36 37 37 37 37 38 39 39 39 39 39 38 37 36 35 34 33 31 30 29 28 26 25 24 24
24 25 25 24 23 23 23 24 25 26 27 29 30 32 33 34 34 35 36 36 36 36 36 36 37 39 40 40 40 40 40 39 38 37 36 34 32 31 31 29 27 27 27
20 19 18 18 18 19 20 22 23 24 26 27 29 30 32 33 35 35 36 36 36 36 35 35 36 37 38 39 40 40 40 40 40 39 38 36 35 34 33 32 31 30 28

GEFSMA_500_meanwind_042.txt.gz
Wind_Speed
21 22 22 22 22 22 22 22 22 21 21 20 19 19 18 17 16 16 17 17 17 18 18 18 19 19 20 19 19 18 17 16 16 15 15 15 15 15 16 16 16 17 17
25 25 26 26 26 26 26 25 25 25 24 23 22 22 22 21 20 19 19 19 19 19 19 20 20 20 21 21 21 20 19 19 18 17 16 16 16 16 16 16 17 17 18
30 30 30 30 29 29 29 29 28 28 27 26 25 25 24 24 24 23 22 22 22 21 21 21 21 21 22 22 22 22 22 21 21 20 19 18 17 17 17 17 18 18 18
35 34 34 34 33 32 32 31 31 30 29 29 28 28 27 27 27 26 26 25 24 24 23 23 23 22 23 24 24 24 24 24 23 23 22 21 20 19 18 18 19 19 19
39 39 38 38 37 36 35 34 34 33 32 31 30 30 30 30 30 29 29 28 27 27 26 26 25 25 25 25 26 27 27 26 26 25 25 24 22 22 21 20 20 20 20
43 43 42 42 41 39 38 37 37 36 36 34 33 33 33 33 32 32 31 31 30 29 28 28 27 27 27 27 27 27 28 29 28 28 27 26 25 24 23 23 22 22 22
46 46 46 45 45 43 42 41 40 40 38 37 35 35 35 35 34 34 34 33 32 31 30 29 29 28 28 28 28 29 29 30 30 29 29 28 28 27 26 25 24 24 24
48 47 47 47 47 46 44 44 43 41 40 39 37 36 35 36 35 35 35 34 33 33 31 31 30 30 30 30 30 30 30 31 31 31 30 30 30 29 28 27 26 26 25
48 48 48 49 48 47 45 45 45 42 41 40 39 37 36 36 36 34 34 34 33 32 32 31 31 31 31 31 32 32 32 32 33 33 33 32 32 31 31 30 28 28 27
47 47 48 49 49 48 47 46 45 43 43 41 38 36 35 35 34 32 33 34 33 32 31 31 31 31 31 31 32 32 33 33 34 34 34 34 34 33 33 32 30 29 29
47 47 48 47 47 47 44 41 39 40 39 37 37 35 34 33 32 31 31 32 32 32 32 31 30 30 30 31 32 33 34 34 35 35 36 35 35 35 35 34 32 31 30
48 48 47 47 46 46 42 40 39 37 35 33 33 32 32 32 31 31 30 30 30 31 32 32 30 29 29 31 32 33 34 35 35 36 37 37 37 36 36 35 34 32 31
49 48 47 44 42 42 40 38 36 35 32 31 30 31 31 31 30 30 29 28 29 30 31 32 31 30 30 30 32 32 33 34 34 35 37 38 38 37 37 36 34 32 31
48 47 44 43 42 41 38 36 33 32 30 29 28 29 29 29 29 29 28 27 27 28 30 31 31 30 30 31 32 33 33 34 34 34 35 36 36 37 37 36 34 32 30
47 45 43 41 39 38 37 33 30 29 29 29 29 29 29 29 28 28 28 28 28 28 29 30 31 31 30 31 32 32 33 33 33 34 34 34 34 35 36 35 34 31 30
46 44 44 40 38 36 34 31 29 28 28 29 30 30 29 29 29 29 29 29 29 29 29 31 32 32 32 31 31 32 33 33 32 32 32 33 33 34 35 35 33 31 30
44 44 42 40 38 35 33 31 30 29 29 29 30 30 29 30 30 31 31 30 30 31 31 32 33 33 34 34 33 32 32 32 32 31 31 31 32 32 32 33 32 31 30
42 42 39 37 35 34 33 30 29 29 29 30 30 30 30 31 32 32 32 33 33 33 33 34 35 35 35 35 35 34 33 33 33 32 31 31 31 31 31 30 30 29 30
37 36 36 34 31 31 30 30 30 29 29 30 30 30 31 32 32 33 34 34 35 36 36 36 36 37 37 37 36 35 34 33 33 33 32 32 31 29 29 28 28 27 27
35 34 32 30 30 30 29 29 28 28 29 29 29 30 31 32 33 34 35 36 37 38 38 39 39 38 38 38 38 37 36 35 34 33 32 32 31 30 29 28 27 27 27
29 29 28 28 28 27 27 26 26 26 27 27 28 30 31 32 33 34 35 36 37 38 39 40 40 40 40 40 40 39 38 37 36 35 33 32 31 32 31 28 28 27 26
22 23 24 24 23 23 23 23 24 25 26 27 28 29 30 32 32 33 34 35 36 37 38 39 40 40 40 41 41 40 39 38 38 37 35 34 33 31 30 29 29 28 28
19 19 19 19 18 18 18 19 21 22 23 24 26 27 29 29 31 32 33 34 35 36 37 39 39 40 40 40 40 40 40 39 39 38 38 36 35 33 31 30 29 29 30
13 13 14 15 16 16 17 18 19 20 22 23 24 25 26 27 28 30 31 32 34 36 37 38 39 40 40 40 40 39 39 39 39 39 38 37 36 34 32 30 31 31 31
11 11 12 13 14 14 15 16 17 17 18 19 20 21 23 25 27 28 30 32 33 35 36 37 38 39 39 39 39 39 38 38 38 38 38 37 36 35 34 32 31 32 33
10 10 11 11 12 12 13 13 13 14 15 16 18 20 22 24 26 28 29 31 33 34 35 35 36 36 36 36 36 36 36 36 36 37 37 36 35 35 34 34 33 33 34

GEFSMA_500_meanwind_048.txt.gz
Wind_Speed
28 27 27 27 27 27 27 27 27 26 26 26 26 26 26 26 25 23 21 20 19 19 18 18 17 16 16 16 16 16 17 17 17 17 17 17 16 16 16 16 15 15 15
33 33 33 33 33 32 31 31 31 31 30 30 30 29 29 29 28 27 25 23 22 21 20 20 19 18 17 17 17 17 18 18 18 18 18 18 18 18 18 17 17 17 16
37 37 37 37 37 37 36 36 35 35 35 34 33 33 32 31 31 30 29 26 24 23 23 22 21 20 20 19 19 19 19 19 19 20 20 20 20 20 20 20 19 19 18
41 41 41 41 41 41 40 39 38 38 38 37 37 36 34 33 33 32 32 30 28 26 25 24 23 23 22 21 21 21 21 21 21 21 22 22 22 22 22 22 22 21 20
43 44 44 43 44 44 43 43 41 40 40 40 39 38 36 35 35 34 33 33 31 29 28 26 25 25 25 24 23 23 22 22 23 23 23 23 23 24 24 24 24 23 23
44 44 45 45 46 46 45 45 43 43 43 42 41 39 39 37 36 34 34 33 31 31 30 29 27 26 26 25 25 24 24 24 24 24 24 25 25 25 26 26 26 26 25
46 45 45 46 46 46 45 45 44 44 44 42 40 38 38 37 36 35 33 33 32 31 30 29 27 26 25 25 25 25 25 25 25 25 26 26 26 27 27 28 28 28 28
46 46 47 48 47 46 45 44 44 43 42 41 39 38 38 37 35 34 34 32 32 32 30 28 27 26 24 24 24 24 25 25 25 26 27 28 28 28 29 30 30 30 30
47 48 49 47 47 45 43 42 42 42 41 41 40 40 40 39 36 34 33 32 30 30 30 30 28 26 25 24 23 24 24 24 24 25 27 28 29 30 30 32 32 32 32
50 50 49 48 47 46 45 44 43 43 43 42 41 41 40 39 37 34 34 33 31 31 30 29 27 25 24 24 23 23 24 24 24 25 26 27 28 30 31 32 32 33 34
52 52 51 50 49 47 46 45 44 44 44 42 41 40 39 38 36 35 35 34 32 30 29 28 27 25 24 24 23 23 24 24 24 25 26 26 28 30 31 32 33 34 35
53 53 52 51 50 48 47 45 45 45 44 43 40 39 38 37 37 36 34 31 29 29 28 28 26 25 24 24 23 23 24 24 25 25 26 27 28 30 31 32 34 35 36
53 53 53 52 50 49 48 46 45 44 43 42 40 39 38 38 36 33 30 28 28 28 28 27 25 24 24 24 23 24 24 25 25 26 27 28 29 30 31 32 33 35 36
54 54 55 54 52 51 50 48 46 45 43 41 40 39 39 36 33 31 29 27 27 27 27 26 24 24 24 24 24 24 25 25 26 26 27 28 29 30 31 32 33 34 35
54 54 53 53 52 51 51 50 47 44 42 40 39 37 36 33 30 28 27 26 26 26 26 26 25 24 25 25 25 25 26 27 28 28 28 29 29 30 30 31 33 34 35
51 53 53 53 52 50 49 47 45 43 40 39 37 35 33 32 29 27 27 26 25 26 26 27 26 26 27 27 27 27 28 29 30 30 30 30 30 31 31 31 32 32 33
44 45 46 48 49 48 46 45 44 42 39 36 34 33 32 29 27 26 25 24 25 25 26 27 28 28 28 29 30 30 31 31 32 33 33 32 32 31 31 32 33 33 33
39 40 40 41 42 41 40 40 40 39 37 36 33 31 30 28 26 25 25 25 25 26 27 28 29 29 30 31 33 34 34 34 35 35 35 35 35 34 33 33 33 34 34
34 34 35 34 34 35 35 35 34 35 35 34 31 30 29 28 26 25 25 25 25 26 27 28 29 31 32 33 34 35 36 37 38 38 38 38 37 36 35 35 34 34 34
28 28 27 27 27 29 30 30 30 31 32 32 32 30 28 27 25 23 24 24 25 25 26 28 29 31 33 34 36 37 38 39 40 40 40 39 39 38 37 36 36 35 34
23 22 21 21 23 24 24 25 25 26 27 28 28 27 24 22 21 21 22 22 23 24 26 28 30 32 34 35 37 38 40 40 41 42 42 41 40 40 39 38 37 36 35
19 19 18 17 19 20 20 21 22 22 23 22 21 21 19 19 19 19 20 21 22 24 26 28 30 32 34 36 37 39 40 41 42 42 43 42 42 41 40 39 38 36 35
16 15 14 14 15 16 17 17 18 17 16 16 15 15 14 15 15 17 18 19 21 23 25 27 30 32 34 35 37 38 40 41 42 42 42 41 41 41 40 39 38 36 35
13 12 11 10 11 12 12 13 12 12 12 12 12 12 12 12 13 14 16 18 20 22 24 26 28 31 33 34 36 37 37 38 39 40 40 39 39 39 38 38 37 37 36
12 12 11 9 9 9 9 9 9 10 10 10 10 10 10 11 11 12 14 16 18 20 23 25 28 30 31 33 34 35 35 36 36 36 36 36 36 36 36 35 35 35 36
11 10 9 8 8 7 7 8 9 9 8 8 8 8 8 9 9 10 12 15 17 19 22 24 26 28 30 31 32 32 32 33 33 33 33 33 33 33 33 33 33 33 33